SWA1753 KDCA-KMKE

Flight info

Callsign SWA1753
Flight time 1h 45m
Altitude 40000
Route HORTO4 BUFFR Q178 DJB J34 CRL PEGEE GETCH LYSTR SUDDS
Aircraft B737/M-SADE2E3GIJ4RWZ/LB1D1

Departure

Time 2026-05-04 16:23
Airport Ronald Reagan Washington National Airport (KDCA)

Arrival

Time 2026-05-04 18:09
Airport General Mitchell International Airport (KMKE)
Time Latitude Longitude Altitude Speed Heading
2026-05-04 15:48 38.84649 -77.04325 23 ft 0 kts 62°
2026-05-04 16:11 38.84642 -77.04343 27 ft 4 kts 69°
2026-05-04 16:12 38.84650 -77.04424 29 ft 0 kts 140°
2026-05-04 16:16 38.84649 -77.04423 29 ft 2 kts 140°
2026-05-04 16:17 38.84582 -77.04347 23 ft 9 kts 131°
2026-05-04 16:18 38.84647 -77.04028 23 ft 16 kts 27°
2026-05-04 16:18 38.84744 -77.03968 23 ft 16 kts 22°
2026-05-04 16:19 38.85140 -77.03976 27 ft 20 kts 355°
2026-05-04 16:19 38.85403 -77.04002 25 ft 18 kts 358°
2026-05-04 16:20 38.85765 -77.04054 26 ft 17 kts 355°
2026-05-04 16:20 38.85938 -77.04002 23 ft 9 kts 64°
2026-05-04 16:21 38.86000 -77.03956 26 ft 1 kts 17°
2026-05-04 16:22 38.86081 -77.03881 22 ft 11 kts 108°
2026-05-04 16:22 38.85236 -77.03783 26 ft 129 kts 176°
2026-05-04 16:23 38.82033 -77.03561 1994 ft 182 kts 182°
2026-05-04 16:24 38.75981 -77.04315 4662 ft 247 kts 220°
2026-05-04 16:25 38.74630 -77.08209 6812 ft 249 kts 264°
2026-05-04 16:26 38.74166 -77.17399 10761 ft 282 kts 267°
2026-05-04 16:26 38.75550 -77.25069 13368 ft 315 kts 309°
2026-05-04 16:27 38.79382 -77.27965 15298 ft 333 kts 335°
2026-05-04 16:28 38.86011 -77.31165 18188 ft 345 kts 334°
2026-05-04 16:28 38.92663 -77.35078 20739 ft 355 kts 332°
2026-05-04 16:29 39.01816 -77.40497 23915 ft 370 kts 333°
2026-05-04 16:30 39.08931 -77.44683 25905 ft 379 kts 333°
2026-05-04 16:31 39.13831 -77.47356 27168 ft 387 kts 339°
2026-05-04 16:31 39.21717 -77.50337 28928 ft 398 kts 341°
2026-05-04 16:32 39.29767 -77.53428 30452 ft 407 kts 340°
2026-05-04 16:33 39.35216 -77.55577 31346 ft 410 kts 340°
2026-05-04 16:33 39.40641 -77.57718 32565 ft 406 kts 339°
2026-05-04 16:34 39.45398 -77.61288 33561 ft 394 kts 312°
2026-05-04 16:34 39.47095 -77.64035 34160 ft 389 kts 300°
2026-05-04 16:35 39.50173 -77.73798 35107 ft 394 kts 290°
2026-05-04 16:35 39.53079 -77.83700 36156 ft 395 kts 291°
2026-05-04 16:36 39.54075 -77.87018 36473 ft 395 kts 291°
2026-05-04 16:36 39.56106 -77.93644 37137 ft 396 kts 291°
2026-05-04 16:37 39.58150 -78.00278 37790 ft 396 kts 291°
2026-05-04 16:37 39.59173 -78.03610 38127 ft 396 kts 291°
2026-05-04 16:37 39.61211 -78.10267 38691 ft 398 kts 291°
2026-05-04 16:38 39.63243 -78.16931 39185 ft 397 kts 290°
2026-05-04 16:39 39.66289 -78.26954 39890 ft 398 kts 290°
2026-05-04 16:39 39.68332 -78.33699 39965 ft 404 kts 290°
2026-05-04 16:40 39.72395 -78.47157 39955 ft 396 kts 290°
2026-05-04 16:41 39.77371 -78.63738 39958 ft 395 kts 290°
2026-05-04 16:43 39.82338 -78.80391 39976 ft 395 kts 290°
2026-05-04 16:43 39.85307 -78.90395 39969 ft 395 kts 290°
2026-05-04 16:45 39.91208 -79.10390 39972 ft 395 kts 290°
2026-05-04 16:46 39.96121 -79.27154 39954 ft 396 kts 290°
2026-05-04 16:47 40.00071 -79.40579 39951 ft 397 kts 294°
2026-05-04 16:48 40.06037 -79.52700 39953 ft 397 kts 303°
2026-05-04 16:49 40.12212 -79.64659 39949 ft 397 kts 303°
2026-05-04 16:50 40.18355 -79.76671 39924 ft 397 kts 303°
2026-05-04 16:51 40.22945 -79.85679 39918 ft 396 kts 303°
2026-05-04 16:52 40.29042 -79.97683 39917 ft 396 kts 303°
2026-05-04 16:53 40.33603 -80.06690 39919 ft 395 kts 303°
2026-05-04 16:54 40.39632 -80.18682 39915 ft 395 kts 303°
2026-05-04 16:55 40.48655 -80.36708 39909 ft 393 kts 303°
2026-05-04 16:56 40.56128 -80.51705 39903 ft 391 kts 303°
2026-05-04 16:57 40.60104 -80.59714 39903 ft 390 kts 303°
2026-05-04 16:58 40.65998 -80.71655 39909 ft 389 kts 303°
2026-05-04 17:00 40.74839 -80.89582 39905 ft 388 kts 302°
2026-05-04 17:01 40.82157 -81.04491 39894 ft 387 kts 302°
2026-05-04 17:02 40.87971 -81.16385 39865 ft 386 kts 302°
2026-05-04 17:03 40.92324 -81.25340 39856 ft 386 kts 302°
2026-05-04 17:03 40.96664 -81.34295 39850 ft 385 kts 302°
2026-05-04 17:04 41.02442 -81.46256 39843 ft 385 kts 302°
2026-05-04 17:05 41.08212 -81.58247 39847 ft 386 kts 301°
2026-05-04 17:06 41.12536 -81.67258 39844 ft 386 kts 301°
2026-05-04 17:07 41.16373 -81.75272 39824 ft 386 kts 301°
2026-05-04 17:07 41.19732 -81.82310 39815 ft 386 kts 301°
2026-05-04 17:08 41.24018 -81.91311 39807 ft 386 kts 301°
2026-05-04 17:09 41.26889 -81.97357 39800 ft 386 kts 301°
2026-05-04 17:09 41.29754 -82.03401 39824 ft 386 kts 301°
2026-05-04 17:10 41.36978 -82.18491 39812 ft 387 kts 303°
2026-05-04 17:11 41.40151 -82.24290 39815 ft 387 kts 304°
2026-05-04 17:12 41.44923 -82.32979 39808 ft 387 kts 304°
2026-05-04 17:13 41.52791 -82.47519 39790 ft 386 kts 303°
2026-05-04 17:14 41.59063 -82.59189 39787 ft 387 kts 303°
2026-05-04 17:15 41.63775 -82.67988 39777 ft 388 kts 303°
2026-05-04 17:16 41.70054 -82.79747 39767 ft 389 kts 303°
2026-05-04 17:17 41.76298 -82.91509 39772 ft 389 kts 303°
2026-05-04 17:18 41.82570 -83.03373 39758 ft 390 kts 303°
2026-05-04 17:19 41.88836 -83.15270 39747 ft 391 kts 303°
2026-05-04 17:20 41.95095 -83.27201 39739 ft 391 kts 303°
2026-05-04 17:20 41.99764 -83.36135 39743 ft 391 kts 303°
2026-05-04 17:21 42.06276 -83.47840 39735 ft 394 kts 312°
2026-05-04 17:22 42.10234 -83.52951 39732 ft 395 kts 313°
2026-05-04 17:23 42.18173 -83.63177 39730 ft 395 kts 313°
2026-05-04 17:24 42.24095 -83.70895 39748 ft 394 kts 312°
2026-05-04 17:25 42.32006 -83.81253 39728 ft 395 kts 312°
2026-05-04 17:26 42.39878 -83.91597 39721 ft 394 kts 312°
2026-05-04 17:27 42.49690 -84.04545 39703 ft 394 kts 312°
2026-05-04 17:27 42.53597 -84.09714 39388 ft 387 kts 312°
2026-05-04 17:28 42.57370 -84.14711 38920 ft 371 kts 311°
2026-05-04 17:29 42.62748 -84.21855 38186 ft 351 kts 311°
2026-05-04 17:29 42.67838 -84.28639 37316 ft 333 kts 311°
2026-05-04 17:30 42.72681 -84.35108 36475 ft 318 kts 311°
2026-05-04 17:31 42.75792 -84.39272 35946 ft 309 kts 311°
2026-05-04 17:31 42.80297 -84.45314 35168 ft 298 kts 311°
2026-05-04 17:32 42.83227 -84.49250 34675 ft 294 kts 311°
2026-05-04 17:33 42.87586 -84.55120 33960 ft 298 kts 311°
2026-05-04 17:33 42.89077 -84.57132 33738 ft 303 kts 311°
2026-05-04 17:34 42.93549 -84.63164 32927 ft 302 kts 311°
2026-05-04 17:34 42.95043 -84.65181 32655 ft 302 kts 311°
2026-05-04 17:35 42.99510 -84.71225 31839 ft 301 kts 310°
2026-05-04 17:35 43.02482 -84.75256 31323 ft 302 kts 310°
2026-05-04 17:35 43.03976 -84.77283 31069 ft 302 kts 310°
2026-05-04 17:36 43.05472 -84.79315 30817 ft 303 kts 310°
2026-05-04 17:36 43.06970 -84.81352 30574 ft 305 kts 310°
2026-05-04 17:36 43.07987 -84.82734 30396 ft 306 kts 310°
2026-05-04 17:36 43.09478 -84.84762 30161 ft 307 kts 310°
2026-05-04 17:37 43.10995 -84.86829 29911 ft 308 kts 310°
2026-05-04 17:37 43.12494 -84.88930 29679 ft 308 kts 304°
2026-05-04 17:37 43.13575 -84.91424 29391 ft 304 kts 291°
2026-05-04 17:37 43.14234 -84.94159 29107 ft 303 kts 280°
2026-05-04 17:38 43.14444 -84.97037 28838 ft 304 kts 274°
2026-05-04 17:38 43.14529 -84.99935 28557 ft 305 kts 272°
2026-05-04 17:38 43.14592 -85.02846 28284 ft 306 kts 272°
2026-05-04 17:38 43.14652 -85.05765 28015 ft 307 kts 272°
2026-05-04 17:39 43.14784 -85.11615 27694 ft 308 kts 272°
2026-05-04 17:39 43.14856 -85.14552 27656 ft 309 kts 272°
2026-05-04 17:39 43.14928 -85.17484 27658 ft 307 kts 272°
2026-05-04 17:40 43.15002 -85.20410 27650 ft 307 kts 272°
2026-05-04 17:40 43.15077 -85.23333 27653 ft 308 kts 272°
2026-05-04 17:40 43.15151 -85.26267 27653 ft 308 kts 272°
2026-05-04 17:40 43.15225 -85.29199 27651 ft 308 kts 272°
2026-05-04 17:41 43.15299 -85.32135 27650 ft 308 kts 272°
2026-05-04 17:41 43.15372 -85.35069 27650 ft 309 kts 272°
2026-05-04 17:41 43.15445 -85.38003 27651 ft 309 kts 272°
2026-05-04 17:41 43.15516 -85.40943 27652 ft 309 kts 272°
2026-05-04 17:42 43.15588 -85.43884 27648 ft 309 kts 272°
2026-05-04 17:42 43.15658 -85.46821 27478 ft 310 kts 272°
2026-05-04 17:42 43.15727 -85.49735 27213 ft 308 kts 272°
2026-05-04 17:42 43.15796 -85.52663 26949 ft 307 kts 272°
2026-05-04 17:43 43.15863 -85.55586 26690 ft 307 kts 272°
2026-05-04 17:43 43.15931 -85.58513 26435 ft 308 kts 272°
2026-05-04 17:43 43.15997 -85.61445 26183 ft 308 kts 272°
2026-05-04 17:43 43.16063 -85.64384 25931 ft 309 kts 272°
2026-05-04 17:44 43.16128 -85.67321 25672 ft 309 kts 272°
2026-05-04 17:44 43.16193 -85.70273 25509 ft 308 kts 272°
2026-05-04 17:44 43.16256 -85.73178 25568 ft 305 kts 272°
2026-05-04 17:44 43.16319 -85.76109 25570 ft 309 kts 271°
2026-05-04 17:45 43.16381 -85.79056 25581 ft 310 kts 271°
2026-05-04 17:45 43.16442 -85.82000 25624 ft 309 kts 271°
2026-05-04 17:45 43.16503 -85.84938 25667 ft 309 kts 271°
2026-05-04 17:45 43.16564 -85.87898 25655 ft 310 kts 271°
2026-05-04 17:46 43.16623 -85.90841 25649 ft 309 kts 271°
2026-05-04 17:46 43.16682 -85.93795 25345 ft 312 kts 271°
2026-05-04 17:46 43.16741 -85.96773 24917 ft 311 kts 271°
2026-05-04 17:46 43.16798 -85.99726 24458 ft 309 kts 271°
2026-05-04 17:47 43.16854 -86.02658 24028 ft 306 kts 271°
2026-05-04 17:47 43.16907 -86.05556 23637 ft 303 kts 270°
2026-05-04 17:47 43.16901 -86.08382 23336 ft 297 kts 269°
2026-05-04 17:47 43.16858 -86.11220 23016 ft 292 kts 268°
2026-05-04 17:48 43.16810 -86.13956 22705 ft 290 kts 268°
2026-05-04 17:48 43.16762 -86.16705 22415 ft 288 kts 268°
2026-05-04 17:48 43.16715 -86.19484 22117 ft 287 kts 268°
2026-05-04 17:48 43.16670 -86.22219 21851 ft 287 kts 268°
2026-05-04 17:49 43.16626 -86.24964 21568 ft 290 kts 268°
2026-05-04 17:49 43.16583 -86.27707 21289 ft 292 kts 268°
2026-05-04 17:49 43.16539 -86.30477 21011 ft 292 kts 268°
2026-05-04 17:49 43.16495 -86.33257 20731 ft 292 kts 268°
2026-05-04 17:50 43.16451 -86.36039 20449 ft 292 kts 268°
2026-05-04 17:50 43.16406 -86.38819 20168 ft 292 kts 268°
2026-05-04 17:50 43.16361 -86.41599 19890 ft 292 kts 268°
2026-05-04 17:50 43.16315 -86.44370 19608 ft 289 kts 268°
2026-05-04 17:51 43.16269 -86.47113 19331 ft 286 kts 268°
2026-05-04 17:51 43.16224 -86.49808 19043 ft 281 kts 268°
2026-05-04 17:51 43.16178 -86.52475 18781 ft 279 kts 268°
2026-05-04 17:51 43.16132 -86.55128 18517 ft 278 kts 268°
2026-05-04 17:52 43.16085 -86.57771 18268 ft 277 kts 268°
2026-05-04 17:52 43.16038 -86.60400 17998 ft 276 kts 268°
2026-05-04 17:52 43.15991 -86.63028 17700 ft 276 kts 268°
2026-05-04 17:52 43.15944 -86.65591 17411 ft 275 kts 268°
2026-05-04 17:53 43.15895 -86.68211 17131 ft 274 kts 268°
2026-05-04 17:53 43.15847 -86.70808 16860 ft 273 kts 268°
2026-05-04 17:53 43.15798 -86.73398 16590 ft 271 kts 268°
2026-05-04 17:53 43.15748 -86.75979 16333 ft 270 kts 268°
2026-05-04 17:54 43.15699 -86.78546 16077 ft 269 kts 268°
2026-05-04 17:54 43.15648 -86.81108 15812 ft 269 kts 268°
2026-05-04 17:54 43.15597 -86.83664 15554 ft 269 kts 268°
2026-05-04 17:54 43.15546 -86.86221 15294 ft 268 kts 268°
2026-05-04 17:55 43.15495 -86.88742 15045 ft 268 kts 267°
2026-05-04 17:55 43.15443 -86.91291 14814 ft 268 kts 267°
2026-05-04 17:55 43.15390 -86.93843 14571 ft 268 kts 267°
2026-05-04 17:55 43.15337 -86.96396 14319 ft 268 kts 267°
2026-05-04 17:56 43.15283 -86.98943 14100 ft 266 kts 267°
2026-05-04 17:56 43.15229 -87.01474 14039 ft 267 kts 267°
2026-05-04 17:56 43.15173 -87.04020 13837 ft 271 kts 267°
2026-05-04 17:56 43.15114 -87.06606 13458 ft 270 kts 267°
2026-05-04 17:57 43.15056 -87.09166 13075 ft 267 kts 267°
2026-05-04 17:57 43.14998 -87.11695 12697 ft 265 kts 267°
2026-05-04 17:57 43.14939 -87.14209 12332 ft 263 kts 267°
2026-05-04 17:57 43.14881 -87.16699 11980 ft 261 kts 267°
2026-05-04 17:58 43.14823 -87.19170 11629 ft 259 kts 267°
2026-05-04 17:58 43.14764 -87.21632 11285 ft 258 kts 267°
2026-05-04 17:58 43.14706 -87.24076 10945 ft 257 kts 268°
2026-05-04 17:58 43.14647 -87.26511 10605 ft 256 kts 268°
2026-05-04 17:59 43.14588 -87.28945 10262 ft 256 kts 268°
2026-05-04 17:59 43.14528 -87.31379 9922 ft 256 kts 268°
2026-05-04 17:59 43.14265 -87.36225 9206 ft 256 kts 254°
2026-05-04 18:00 43.13469 -87.38401 8858 ft 257 kts 239°
2026-05-04 18:00 43.12443 -87.40406 8506 ft 256 kts 238°
2026-05-04 18:00 43.11404 -87.42378 8148 ft 254 kts 237°
2026-05-04 18:00 43.10374 -87.44328 7820 ft 252 kts 238°
2026-05-04 18:01 43.09364 -87.46251 7466 ft 251 kts 238°
2026-05-04 18:01 43.08350 -87.48190 7151 ft 250 kts 238°
2026-05-04 18:01 43.07345 -87.50116 6823 ft 249 kts 238°
2026-05-04 18:02 43.05344 -87.53961 6165 ft 247 kts 238°
2026-05-04 18:02 43.04346 -87.55880 5819 ft 247 kts 238°
2026-05-04 18:02 43.03355 -87.57782 5475 ft 245 kts 237°
2026-05-04 18:02 43.02375 -87.59663 5137 ft 242 kts 237°
2026-05-04 18:03 43.01407 -87.61523 4812 ft 237 kts 238°
2026-05-04 18:03 43.00693 -87.63490 4490 ft 226 kts 251°
2026-05-04 18:03 43.00220 -87.65485 4219 ft 214 kts 252°
2026-05-04 18:03 42.99788 -87.67358 3910 ft 201 kts 251°
2026-05-04 18:04 42.99377 -87.69113 3637 ft 188 kts 250°
2026-05-04 18:04 42.98994 -87.70746 3422 ft 174 kts 250°
2026-05-04 18:04 42.98304 -87.73647 2997 ft 145 kts 248°
2026-05-04 18:05 42.98003 -87.74900 2794 ft 132 kts 248°
2026-05-04 18:05 42.97733 -87.76022 2643 ft 120 kts 248°
2026-05-04 18:05 42.97484 -87.77080 2488 ft 116 kts 249°
2026-05-04 18:05 42.97241 -87.78145 2314 ft 120 kts 249°
2026-05-04 18:06 42.96721 -87.80252 2021 ft 117 kts 247°
2026-05-04 18:06 42.96465 -87.81280 1867 ft 116 kts 249°
2026-05-04 18:06 42.96211 -87.82331 1709 ft 116 kts 249°
2026-05-04 18:07 42.95966 -87.83363 1558 ft 113 kts 250°
2026-05-04 18:07 42.95711 -87.84429 1410 ft 124 kts 248°
2026-05-04 18:07 42.95447 -87.85521 1260 ft 117 kts 247°
2026-05-04 18:07 42.95187 -87.86562 1102 ft 115 kts 248°
2026-05-04 18:08 42.94941 -87.87578 933 ft 110 kts 246°
2026-05-04 18:08 42.94695 -87.88559 786 ft 110 kts 248°
2026-05-04 18:08 42.94455 -87.89540 686 ft 103 kts 250°
2026-05-04 18:08 42.94269 -87.90290 685 ft 62 kts 251°
2026-05-04 18:09 42.94123 -87.90905 685 ft 26 kts 252°
2026-05-04 18:09 42.94174 -87.91147 684 ft 7 kts 32°
2026-05-04 18:10 42.94192 -87.91091 686 ft 6 kts 71°
2026-05-04 18:10 42.94206 -87.91034 686 ft 6 kts 72°
2026-05-04 18:10 42.94220 -87.90977 685 ft 6 kts 72°
2026-05-04 18:10 42.94233 -87.90921 683 ft 6 kts 72°
2026-05-04 18:11 42.94247 -87.90858 684 ft 8 kts 72°
2026-05-04 18:11 42.94267 -87.90777 687 ft 10 kts 71°
2026-05-04 18:11 42.94292 -87.90679 684 ft 11 kts 71°
2026-05-04 18:11 42.94315 -87.90583 680 ft 11 kts 72°
2026-05-04 18:12 42.94340 -87.90477 687 ft 13 kts 72°
2026-05-04 18:12 42.94368 -87.90359 687 ft 13 kts 72°
2026-05-04 18:12 42.94396 -87.90243 687 ft 13 kts 72°
2026-05-04 18:12 42.94424 -87.90130 685 ft 12 kts 71°
2026-05-04 18:13 42.94452 -87.90023 687 ft 12 kts 71°
2026-05-04 18:13 42.94512 -87.89962 685 ft 12 kts 21°
2026-05-04 18:13 42.94596 -87.89776 685 ft 11 kts 51°
2026-05-04 18:14 42.94664 -87.89735 683 ft 11 kts
2026-05-04 18:14 42.94740 -87.89728 684 ft 11 kts
2026-05-04 18:14 42.94813 -87.89717 683 ft 10 kts
2026-05-04 18:15 42.94949 -87.89724 681 ft 10 kts 322°
2026-05-04 18:15 42.95054 -87.89829 683 ft 9 kts 335°
2026-05-04 18:15 42.95101 -87.89887 683 ft 9 kts 312°
2026-05-04 18:16 42.95138 -87.89947 683 ft 8 kts 300°
2026-05-04 18:16 42.95125 -87.90001 686 ft 6 kts 228°
2026-05-04 18:16 42.95110 -87.90025 685 ft 1 kts 229°
2026-05-04 18:17 42.95106 -87.90030 687 ft 0 kts 229°